Estación de Colegual INIA
Ultimos registro cada 15 minutos 55
| N° | Estación | Fecha / Hora | Temperatura | Humedad | Lluvia | Velocidad | Dirección | Radiación | Presion |
| 55 | Colegual INIA | 03-05-2026 13:30 | 10,2 | 96,6 | 0 | 3 | 225 | 284 | 990 |
| 54 | Colegual INIA | 03-05-2026 13:15 | 9,7 | 97,5 | 0 | 2,7 | 199 | 82 | 990 |
| 53 | Colegual INIA | 03-05-2026 13:00 | 9,7 | 96,9 | 0 | 3,8 | 210 | 78 | 990 |
| 52 | Colegual INIA | 03-05-2026 12:45 | 9,8 | 96,2 | 0,1 | 5,1 | 225 | 115 | 990 |
| 51 | Colegual INIA | 03-05-2026 12:30 | 10 | 96,1 | 0 | 5 | 222 | 214 | 990 |
| 50 | Colegual INIA | 03-05-2026 12:15 | 9,7 | 97,1 | 0 | 3,9 | 223 | 270 | 990 |
| 49 | Colegual INIA | 03-05-2026 12:00 | 9,1 | 97,5 | 0 | 3,7 | 220 | 94 | 990 |
| 48 | Colegual INIA | 03-05-2026 11:45 | 9 | 97,2 | 0 | 3,6 | 219 | 74 | 990 |
| 47 | Colegual INIA | 03-05-2026 11:30 | 8,8 | 97,8 | 0,2 | 4,2 | 226 | 67 | 990 |
| 46 | Colegual INIA | 03-05-2026 11:15 | 8,7 | 97,7 | 0,6 | 4,5 | 220 | 46 | 989 |
| 45 | Colegual INIA | 03-05-2026 11:00 | 8,6 | 97,7 | 0,5 | 4,9 | 228 | 43 | 989 |
| 44 | Colegual INIA | 03-05-2026 10:45 | 8,5 | 97,5 | 0 | 4,9 | 232 | 36 | 989 |
| 43 | Colegual INIA | 03-05-2026 10:30 | 8,4 | 97,7 | 0,1 | 5,4 | 234 | 43 | 989 |
| 42 | Colegual INIA | 03-05-2026 10:15 | 8,2 | 97,6 | 0 | 5,3 | 236 | 27 | 989 |
| 41 | Colegual INIA | 03-05-2026 10:00 | 8,1 | 97,5 | 0 | 4,9 | 233 | 47 | 989 |
| 40 | Colegual INIA | 03-05-2026 09:45 | 8 | 97,6 | 0 | 4,9 | 233 | 38 | 989 |
| 39 | Colegual INIA | 03-05-2026 09:30 | 7,8 | 97,2 | 0 | 4,6 | 233 | 29 | 989 |
| 38 | Colegual INIA | 03-05-2026 09:15 | 7,8 | 96,8 | 0 | 5,1 | 232 | 21 | 989 |
| 37 | Colegual INIA | 03-05-2026 09:00 | 7,7 | 96,9 | 0 | 4,7 | 234 | 18 | 989 |
| 36 | Colegual INIA | 03-05-2026 08:45 | 7,6 | 96,8 | 0 | 5,4 | 237 | 17 | 989 |
| 35 | Colegual INIA | 03-05-2026 08:30 | 7,5 | 96,6 | 0 | 5,2 | 238 | 15 | 989 |
| 34 | Colegual INIA | 03-05-2026 08:15 | 7,3 | 97 | 0 | 4,9 | 234 | 9 | 989 |
| 33 | Colegual INIA | 03-05-2026 08:00 | 6,9 | 97,6 | 0 | 4,4 | 241 | 3 | 989 |
| 32 | Colegual INIA | 03-05-2026 07:45 | 6,6 | 97,8 | 0 | 4,6 | 242 | 1 | 989 |
| 31 | Colegual INIA | 03-05-2026 07:30 | 6,4 | 97,5 | 0 | 4,6 | 245 | 0 | 990 |
| 30 | Colegual INIA | 03-05-2026 07:15 | 6,3 | 96,1 | 0 | 5 | 243 | 0 | 990 |
| 29 | Colegual INIA | 03-05-2026 07:00 | 6,3 | 96,3 | 0 | 4,8 | 246 | 0 | 989 |
| 28 | Colegual INIA | 03-05-2026 06:45 | 6,2 | 95,6 | 0 | 4,7 | 246 | 0 | 989 |
| 27 | Colegual INIA | 03-05-2026 06:30 | 6,2 | 93,7 | 0 | 4,8 | 243 | 0 | 989 |
| 26 | Colegual INIA | 03-05-2026 06:15 | 6,2 | 93,2 | 0,1 | 4,7 | 248 | 0 | 989 |
| 25 | Colegual INIA | 03-05-2026 06:00 | 6,2 | 92,7 | 0 | 4,2 | 246 | 0 | 990 |
| 24 | Colegual INIA | 03-05-2026 05:45 | 6,3 | 90,4 | 0 | 4,6 | 243 | 0 | 989 |
| 23 | Colegual INIA | 03-05-2026 05:30 | 6,2 | 90,3 | 0,1 | 4,7 | 243 | 0 | 990 |
| 22 | Colegual INIA | 03-05-2026 05:15 | 6,3 | 93,8 | 0,1 | 4,2 | 248 | 0 | 990 |
| 21 | Colegual INIA | 03-05-2026 05:00 | 6,3 | 93,6 | 0,8 | 3,7 | 246 | 0 | 990 |
| 20 | Colegual INIA | 03-05-2026 04:45 | 6,4 | 93,4 | 0,8 | 3,7 | 244 | 0 | 989 |
| 19 | Colegual INIA | 03-05-2026 04:30 | 6,4 | 91,6 | 0,2 | 4,1 | 247 | 0 | 990 |
| 18 | Colegual INIA | 03-05-2026 04:15 | 6,5 | 91,7 | 0,6 | 4,4 | 248 | 0 | 990 |
| 17 | Colegual INIA | 03-05-2026 04:00 | 6,6 | 88,5 | 0,3 | 4,1 | 236 | 0 | 990 |
| 16 | Colegual INIA | 03-05-2026 03:45 | 6,6 | 87 | 0,2 | 4,2 | 240 | 0 | 990 |
| 15 | Colegual INIA | 03-05-2026 03:30 | 6,6 | 88 | 0,2 | 4,1 | 236 | 0 | 991 |
| 14 | Colegual INIA | 03-05-2026 03:15 | 6,6 | 88,1 | 0 | 3,8 | 232 | 0 | 991 |
| 13 | Colegual INIA | 03-05-2026 03:00 | 6,7 | 88,2 | 0,1 | 3,6 | 250 | 0 | 991 |
| 12 | Colegual INIA | 03-05-2026 02:45 | 6,8 | 86,4 | 0,4 | 4,3 | 246 | 0 | 991 |
| 11 | Colegual INIA | 03-05-2026 02:30 | 7,2 | 84,8 | 0 | 4,3 | 236 | 0 | 991 |
| 10 | Colegual INIA | 03-05-2026 02:15 | 7,2 | 81,6 | 0 | 3,5 | 234 | 0 | 991 |
| 9 | Colegual INIA | 03-05-2026 02:00 | 7,1 | 82,5 | 0 | 4,2 | 243 | 0 | 992 |
| 8 | Colegual INIA | 03-05-2026 01:45 | 7,1 | 82,6 | 0 | 4,3 | 237 | 0 | 992 |
| 7 | Colegual INIA | 03-05-2026 01:30 | 7,1 | 83 | 0 | 4 | 242 | 0 | 992 |
| 6 | Colegual INIA | 03-05-2026 01:15 | 7,1 | 82,4 | 0 | 3,7 | 245 | 0 | 992 |
| 5 | Colegual INIA | 03-05-2026 01:00 | 7,3 | 82 | 0 | 3,5 | 239 | 0 | 992 |
| 4 | Colegual INIA | 03-05-2026 00:45 | 7,2 | 81,2 | 0 | 2,9 | 242 | 0 | 992 |
| 3 | Colegual INIA | 03-05-2026 00:30 | 7,1 | 81,1 | 0 | 3,3 | 249 | 0 | 992 |
| 2 | Colegual INIA | 03-05-2026 00:15 | 6,9 | 82,3 | 0 | 3,7 | 242 | 0 | 992 |
| 1 | Colegual INIA | 03-05-2026 00:00 | 6,9 | 82,2 | 0 | 3,9 | 255 | 0 | 993 |